О сайте АЭРОКЛУБЫ И АЭРОДРОМЫ:

Добрый день Уважаемые посетители сайта!
Этот ресурс создан с целью предоставить любителям малой авиации максимум полезной информации и возможностей по обмену различными сведениями об аэродромах и интересных маршрутах. Для этого на сайте есть странички Аэродромы - информация из баз АОПА (в том виде как она предоставляется к свободному использованию) и Каталог аэродромов и аэроклубов , с различными вариантами поиска и сортировки, возможностью найти трансфер, арендовать авто или забронировать номер в гостинице on-line, а так же возможностями :
- для аэроклубов - добавить какую либо дополнительную информацию в страничку , посвященную аэроклубу
(чтобы добавить информацию необходимо зарегистрироваться, и подтвердить свою принадлежность к какому либо аэроклубу)
- для посетителей - поделиться каким либо интересным маршрутом, нарисовать его на карте, описать достопримечательности, загрузить фотографии и поставить в соответствие с каким либо клубом или аэродромом.
(чтобы добавить информацию необходимо зарегистрироваться)

Аэроклубы / Аэродромы в Москве

Карта аэродромов в Москве по коду ИКАО

Список аэродромов Москвы

Javascript is required to view this map.

Авиационная погода в Москва - Домодедово

Регион: 
Погода METAR: 
UUDD 070830Z 24006MPS 210V280 9999 SCT046 13/01 Q1011 R88/60D NOSIG
Время наблюдения
2021-05-07T08:30:00Z
Температура C
13.0
Точка росы
1.0
Направление ветра
240
Скорость ветра (узлы)
12
Метео видимость
6.21
Явления погоды
Условия полета
VFR
Аэропорт подробнее: 

Авиационная погода в Москва - Шереметьево

Регион: 
Погода METAR: 
UUEE 070830Z 25005G10MPS 210V290 CAVOK 11/00 Q1010 R24C/CLRD62 R24R/CLRD62 NOSIG
Время наблюдения
2021-05-07T08:30:00Z
Температура C
11.0
Точка росы
0.0
Направление ветра
250
Скорость ветра (узлы)
10
Метео видимость
6.21
Явления погоды
Условия полета
VFR
Аэропорт подробнее: 

Авиационная погода в Москва - Внуково

Регион: 
Погода METAR: 
UUWW 070830Z 26005MPS CAVOK 11/M02 Q1011 R24/000065 NOSIG
Время наблюдения
2021-05-07T08:30:00Z
Температура C
11.0
Точка росы
-2.0
Направление ветра
260
Скорость ветра (узлы)
10
Метео видимость
6.21
Явления погоды
Условия полета
VFR
Аэропорт подробнее: 

Аэроклубы и аэродромы по регионам Юга России